Home   Weather   Aurora   Past weeks

Flag for USA Past Weather in Aurora, Colorado, USA — Yesterday and Last 2 Weeks

Now
67 °F

Passing clouds.


Feels Like: 67 °F
Forecast: 45 / 71 °F
Wind: 20 mph from West

Location: Buckley Air Force Base

Current Time: Feb 21, 2017 at 11:49:52 am

Latest Report: Feb 21, 2017 at 10:58 am


Visibility: 10 mi

Pressure: 29.94 "Hg (24.70 "Hg at 1647m altitude)

Humidity: 11%

Dew Point: 11 °F

Location of AuroraLocation

Past Weather in Aurora — Graph

°F

Aurora Temperature Yesterday

Maximum temperature yesterday: 61 °F (at 3:58 pm)
Minimum temperature yesterday: 34 °F (at 3:58 am)
Average temperature yesterday: 47 °F

High & Low Weather Summary for the Past Weeks

 TemperatureHumidityPressure
High78 °F (Feb 10, 1:58 pm)85% (Feb 19, 11:58 pm)30.50 "Hg (Feb 19, 11:58 pm)
Low26 °F (Feb 14, 4:58 am)4% (Feb 16, 11:58 am)29.41 "Hg (Feb 19, 1:58 pm)
Average47 °F35%29.85 "Hg
* Reported Feb 6 9:58 am — Feb 21 9:58 am, Aurora, Weather by CustomWeather, © 2017

Note: Actual official high and low records may vary slightly from our data, if they occured in-between our weather recording intervals... More about our weather records

Advertising

Aurora Weather History for the Previous 24 Hours

Scroll right to see more
 ConditionsComfort  
Time TempWeatherWind HumidityBarometerVisibility
9:58 am
Tue, Feb 21
64 °FPassing clouds.20 mph15%29.96 "Hg10 mi
8:58 am61 °FPassing clouds.17 mph18%29.96 "Hg10 mi
7:58 am56 °FPassing clouds.13 mph24%29.98 "Hg10 mi
6:58 am53 °FPassing clouds.20 mph27%29.97 "Hg10 mi
5:58 am48 °FPassing clouds.8 mph30%29.97 "Hg10 mi
4:58 am50 °FPassing clouds.No wind27%29.92 "Hg10 mi
3:58 am48 °FPassing clouds.6 mph27%29.91 "Hg10 mi
2:58 am52 °FPassing clouds.12 mph23%29.88 "Hg10 mi
1:58 am44 °FPassing clouds.9 mph26%29.90 "Hg10 mi
12:58 am45 °FPassing clouds.13 mph23%29.89 "Hg10 mi
11:58 pm
Mon, Feb 20
46 °FPassing clouds.14 mph22%29.89 "Hg10 mi
10:58 pm47 °FPassing clouds.16 mph21%29.88 "Hg10 mi
9:58 pm46 °FPassing clouds.15 mph25%29.89 "Hg10 mi
8:58 pm43 °FPassing clouds.14 mph27%29.94 "Hg10 mi
7:58 pm43 °FPassing clouds.12 mph28%29.97 "Hg10 mi
6:58 pm44 °FPassing clouds.13 mph29%30.00 "Hg10 mi
5:58 pm51 °FPassing clouds.8 mph23%29.98 "Hg10 mi
4:58 pm59 °FPassing clouds.6 mph15%29.92 "Hg10 mi
3:58 pm61 °FPassing clouds.12 mph14%29.91 "Hg10 mi
2:58 pm60 °FPassing clouds.5 mph15%29.91 "Hg10 mi
1:58 pm59 °FPassing clouds.10 mph15%29.90 "Hg10 mi
12:58 pm58 °FPassing clouds.10 mph16%29.89 "Hg10 mi
11:58 am55 °FPassing clouds.No wind17%29.93 "Hg10 mi
Weather by CustomWeather, © 2017

See weather overviewHow to use our weather pages